AUA38O KEWR-LOWW

Flight info

Callsign AUA38O
Flight time N/A
Altitude 35000
Route GREKI DCT JUDDS DCT MARTN DCT TOPPS N569B TUDEP/M083F360 DCT 52N050W 53N040W 54N030W 54N020W DCT MALOT DCT GISTI/N0474F370 DCT BAKUR DCT OKSAW DCT KONAN DCT KOK UL607 FERDI DCT MATUG DCT GUBAX DCT BARSU DCT EKSOS DCT LULAR DCT RUDAP DCT BUDEX BUDEX2W
Aircraft B772/H-SDE2E3FGHIJ5LORVWXY/LB1D1

Departure

Time 2026-05-06 18:37
Airport Newark Liberty International Airport (KEWR)

Arrival

Time N/A
Airport Vienna International Airport (LOWW)
Time Latitude Longitude Altitude Speed Heading
2026-05-06 18:11 40.69140 -74.17366 26 ft 0 kts 322°
2026-05-06 18:28 40.69126 -74.17351 25 ft 4 kts 316°
2026-05-06 18:28 40.69108 -74.17326 24 ft 4 kts 310°
2026-05-06 18:28 40.69090 -74.17299 32 ft 4 kts 316°
2026-05-06 18:28 40.69074 -74.17280 32 ft 4 kts 328°
2026-05-06 18:29 40.69053 -74.17269 32 ft 4 kts
2026-05-06 18:29 40.69029 -74.17278 32 ft 4 kts 26°
2026-05-06 18:29 40.69008 -74.17292 25 ft 4 kts 32°
2026-05-06 18:29 40.68986 -74.17310 24 ft 3 kts 26°
2026-05-06 18:30 40.68984 -74.17312 25 ft 0 kts 26°
2026-05-06 18:32 40.68995 -74.17305 25 ft 3 kts 27°
2026-05-06 18:33 40.69027 -74.17283 32 ft 7 kts 27°
2026-05-06 18:33 40.69079 -74.17247 32 ft 10 kts 27°
2026-05-06 18:33 40.69153 -74.17196 31 ft 13 kts 27°
2026-05-06 18:33 40.69245 -74.17136 31 ft 16 kts 26°
2026-05-06 18:34 40.69346 -74.17073 29 ft 16 kts 25°
2026-05-06 18:34 40.69451 -74.17010 26 ft 18 kts 27°
2026-05-06 18:34 40.69570 -74.16933 32 ft 21 kts 25°
2026-05-06 18:34 40.69707 -74.16846 26 ft 23 kts 25°
2026-05-06 18:35 40.69854 -74.16769 29 ft 23 kts
2026-05-06 18:35 40.70003 -74.16751 32 ft 15 kts
2026-05-06 18:35 40.70076 -74.16700 29 ft 9 kts 77°
2026-05-06 18:35 40.70074 -74.16608 30 ft 14 kts 95°
2026-05-06 18:36 40.70065 -74.16479 26 ft 13 kts 95°
2026-05-06 18:36 40.70057 -74.16379 28 ft 5 kts 104°
2026-05-06 18:36 40.70031 -74.16361 25 ft 3 kts 194°
2026-05-06 18:36 40.69987 -74.16391 27 ft 22 kts 206°
2026-05-06 18:37 40.69615 -74.16630 27 ft 95 kts 207°
2026-05-06 18:37 40.68823 -74.17130 33 ft 156 kts 205°
2026-05-06 18:37 40.67778 -74.17797 451 ft 172 kts 206°
2026-05-06 18:37 40.66685 -74.18501 1117 ft 183 kts 207°
2026-05-06 18:38 40.65520 -74.19216 1818 ft 187 kts 207°
2026-05-06 18:38 40.64289 -74.19927 2213 ft 202 kts 206°
2026-05-06 18:38 40.62945 -74.20677 2447 ft 213 kts 205°
2026-05-06 18:38 40.61545 -74.21458 2523 ft 224 kts 205°
2026-05-06 18:39 40.60108 -74.22267 2697 ft 229 kts 206°
2026-05-06 18:39 40.58620 -74.23112 2542 ft 235 kts 206°
2026-05-06 18:39 40.57206 -74.24079 2542 ft 227 kts 219°
2026-05-06 18:40 40.56024 -74.27786 3588 ft 241 kts 274°
2026-05-06 18:40 40.56693 -74.29870 4148 ft 258 kts 302°
2026-05-06 18:40 40.58110 -74.31372 4716 ft 275 kts 329°
2026-05-06 18:40 40.60030 -74.31937 5250 ft 292 kts 356°
2026-05-06 18:41 40.62061 -74.31369 5729 ft 304 kts 20°
2026-05-06 18:41 40.63951 -74.30134 6023 ft 310 kts 26°
2026-05-06 18:41 40.65854 -74.28722 6002 ft 311 kts 27°
2026-05-06 18:41 40.67720 -74.27310 5996 ft 309 kts 27°
2026-05-06 18:42 40.69560 -74.25908 6007 ft 306 kts 27°
2026-05-06 18:42 40.71416 -74.24492 6012 ft 307 kts 27°
2026-05-06 18:42 40.73252 -74.23089 6024 ft 308 kts 28°
2026-05-06 18:42 40.74990 -74.21447 6354 ft 310 kts 46°
2026-05-06 18:43 40.76193 -74.19065 6766 ft 312 kts 70°
2026-05-06 18:43 40.76910 -74.16378 7196 ft 315 kts 76°
2026-05-06 18:43 40.77523 -74.13578 7667 ft 319 kts 77°
2026-05-06 18:43 40.78129 -74.10737 8152 ft 321 kts 78°
2026-05-06 18:44 40.78746 -74.07871 8616 ft 325 kts 77°
2026-05-06 18:44 40.79360 -74.05001 9038 ft 330 kts 77°
2026-05-06 18:44 40.79985 -74.02047 9486 ft 334 kts 77°
2026-05-06 18:44 40.80615 -73.99074 9904 ft 338 kts 77°
2026-05-06 18:45 40.81315 -73.96121 10215 ft 343 kts 65°
2026-05-06 18:45 40.82803 -73.93588 10327 ft 355 kts 36°
2026-05-06 18:45 40.84852 -73.91753 10451 ft 366 kts 27°
2026-05-06 18:45 40.86334 -73.90595 10538 ft 377 kts 26°
2026-05-06 18:46 40.89399 -73.88183 10626 ft 389 kts 28°
2026-05-06 18:46 40.91664 -73.86195 10709 ft 398 kts 32°
2026-05-06 18:46 40.93938 -73.84025 10781 ft 407 kts 34°
2026-05-06 18:46 40.96239 -73.81761 10847 ft 415 kts 34°
2026-05-06 18:47 40.98551 -73.79474 10925 ft 422 kts 34°
2026-05-06 18:47 41.00937 -73.77125 11055 ft 427 kts 34°
2026-05-06 18:47 41.03347 -73.74770 11273 ft 429 kts 34°
2026-05-06 18:47 41.05737 -73.72448 11549 ft 429 kts 33°
2026-05-06 18:48 41.08153 -73.70109 11859 ft 430 kts 33°
2026-05-06 18:48 41.10582 -73.67764 12152 ft 435 kts 33°
2026-05-06 18:48 41.13012 -73.65420 12739 ft 437 kts 33°
2026-05-06 18:48 41.15492 -73.63027 13425 ft 439 kts 33°
2026-05-06 18:49 41.17952 -73.60648 14023 ft 442 kts 32°
2026-05-06 18:49 41.20450 -73.58232 14580 ft 445 kts 32°
2026-05-06 18:49 41.22978 -73.55784 15118 ft 449 kts 32°
2026-05-06 18:49 41.25494 -73.53345 15649 ft 452 kts 32°
2026-05-06 18:50 41.28057 -73.50857 16164 ft 455 kts 32°
2026-05-06 18:50 41.30598 -73.48388 16654 ft 459 kts 32°
2026-05-06 18:50 41.33196 -73.45860 17157 ft 461 kts 32°
2026-05-06 18:50 41.35807 -73.43316 17667 ft 464 kts 32°
2026-05-06 18:51 41.38424 -73.40764 18140 ft 467 kts 32°
2026-05-06 18:51 41.41023 -73.38226 18562 ft 469 kts 32°
2026-05-06 18:51 41.43665 -73.35645 19002 ft 471 kts 32°
2026-05-06 18:51 41.46297 -73.33070 19423 ft 472 kts 33°
2026-05-06 18:52 41.48885 -73.30385 19585 ft 472 kts 37°
2026-05-06 18:52 41.51306 -73.27315 19697 ft 482 kts 43°
2026-05-06 18:52 41.53586 -73.24058 20031 ft 487 kts 45°
2026-05-06 18:52 41.55909 -73.20708 20484 ft 487 kts 44°
2026-05-06 18:53 41.58237 -73.17486 20930 ft 488 kts 42°
2026-05-06 18:53 41.60696 -73.14351 21209 ft 484 kts 37°
2026-05-06 18:53 41.63291 -73.11489 21223 ft 483 kts 36°
2026-05-06 18:53 41.65812 -73.08584 21225 ft 484 kts 39°
2026-05-06 18:54 41.68238 -73.05414 21242 ft 486 kts 43°
2026-05-06 18:54 41.70571 -73.02068 21318 ft 493 kts 45°
2026-05-06 18:54 41.72880 -72.98680 21580 ft 498 kts 45°
2026-05-06 18:54 41.75240 -72.95262 21961 ft 499 kts 44°
2026-05-06 18:55 41.77618 -72.91910 22402 ft 499 kts 43°
2026-05-06 18:55 41.80063 -72.88558 22821 ft 501 kts 42°
2026-05-06 18:55 41.82504 -72.85280 23144 ft 503 kts 42°
2026-05-06 18:55 41.85014 -72.81953 23476 ft 506 kts 41°
2026-05-06 18:56 41.87545 -72.78614 23753 ft 509 kts 41°
2026-05-06 18:56 41.90047 -72.75310 24044 ft 511 kts 41°
2026-05-06 18:56 41.92596 -72.71931 24355 ft 513 kts 42°
2026-05-06 18:56 41.94279 -72.69692 24551 ft 515 kts 42°
2026-05-06 18:57 41.96836 -72.66277 24865 ft 516 kts 42°
2026-05-06 18:57 41.99356 -72.62900 25179 ft 518 kts 42°
2026-05-06 18:57 42.01932 -72.59438 25477 ft 520 kts 42°
2026-05-06 18:57 42.05338 -72.54853 25818 ft 523 kts 42°
2026-05-06 18:58 42.07042 -72.52556 26007 ft 524 kts 42°
2026-05-06 18:58 42.09656 -72.49031 26322 ft 525 kts 42°
2026-05-06 18:58 42.12216 -72.45577 26608 ft 527 kts 42°
2026-05-06 18:58 42.14826 -72.42051 26879 ft 529 kts 42°
2026-05-06 18:59 42.17415 -72.38552 27158 ft 531 kts 42°
2026-05-06 18:59 42.20043 -72.34994 27453 ft 533 kts 42°
2026-05-06 18:59 42.22670 -72.31433 27743 ft 534 kts 42°
2026-05-06 18:59 42.25269 -72.27907 28024 ft 536 kts 42°
2026-05-06 19:00 42.27884 -72.24353 28291 ft 537 kts 42°
2026-05-06 19:00 42.30526 -72.20758 28595 ft 539 kts 42°
2026-05-06 19:00 42.33185 -72.17136 28871 ft 540 kts 43°
2026-05-06 19:00 42.35807 -72.13558 29136 ft 542 kts 43°
2026-05-06 19:01 42.38476 -72.09912 29395 ft 543 kts 43°
2026-05-06 19:01 42.41118 -72.06298 29651 ft 544 kts 43°
2026-05-06 19:01 42.43797 -72.02630 29884 ft 545 kts 43°
2026-05-06 19:01 42.46474 -71.98960 30074 ft 546 kts 43°
2026-05-06 19:02 42.49130 -71.95314 30264 ft 548 kts 43°
2026-05-06 19:02 42.51812 -71.91627 30450 ft 549 kts 43°
2026-05-06 19:02 42.54507 -71.87915 30642 ft 549 kts 43°
2026-05-06 19:02 42.57167 -71.84246 30899 ft 548 kts 43°
2026-05-06 19:03 42.59817 -71.80587 31188 ft 546 kts 43°
2026-05-06 19:03 42.62489 -71.76890 31463 ft 545 kts 43°
2026-05-06 19:03 42.65127 -71.73237 31685 ft 545 kts 43°
2026-05-06 19:03 42.67783 -71.69556 31930 ft 544 kts 43°
2026-05-06 19:04 42.70438 -71.65874 32190 ft 543 kts 43°
2026-05-06 19:04 42.73093 -71.62187 32460 ft 542 kts 43°
2026-05-06 19:04 42.75704 -71.58558 32698 ft 542 kts 43°
2026-05-06 19:05 42.81011 -71.51170 32803 ft 544 kts 44°
2026-05-06 19:05 42.86259 -71.43839 32793 ft 540 kts 44°
2026-05-06 19:06 42.91466 -71.36543 32796 ft 536 kts 44°
2026-05-06 19:06 42.96665 -71.29240 32806 ft 535 kts 44°
2026-05-06 19:07 43.01839 -71.21953 32799 ft 535 kts 45°
2026-05-06 19:07 43.07037 -71.14615 32799 ft 535 kts 45°
2026-05-06 19:08 43.12203 -71.07301 32801 ft 536 kts 45°
2026-05-06 19:08 43.17397 -70.99929 32816 ft 538 kts 45°
2026-05-06 19:09 43.22602 -70.92524 33061 ft 541 kts 45°
2026-05-06 19:09 43.25192 -70.88831 33325 ft 540 kts 45°
2026-05-06 19:09 43.27794 -70.85116 33608 ft 538 kts 45°
2026-05-06 19:09 43.30388 -70.81406 33854 ft 537 kts 45°
2026-05-06 19:10 43.32959 -70.77725 34026 ft 538 kts 45°
2026-05-06 19:10 43.35542 -70.74023 34171 ft 538 kts 45°
2026-05-06 19:10 43.38125 -70.70315 34329 ft 538 kts 45°
2026-05-06 19:10 43.40717 -70.66589 34502 ft 538 kts 45°
2026-05-06 19:11 43.43318 -70.62846 34664 ft 538 kts 45°
2026-05-06 19:11 43.48479 -70.55407 34787 ft 541 kts 45°
2026-05-06 19:12 43.53705 -70.47858 34827 ft 542 kts 45°
2026-05-06 19:12 43.58873 -70.40369 34833 ft 541 kts 45°
2026-05-06 19:13 43.64039 -70.32862 34814 ft 540 kts 45°
2026-05-06 19:13 43.69229 -70.25297 34821 ft 540 kts 45°
2026-05-06 19:14 43.74377 -70.17775 34816 ft 540 kts 45°
2026-05-06 19:14 43.79523 -70.10236 34842 ft 540 kts 45°
2026-05-06 19:15 43.84700 -70.02632 34855 ft 541 kts 45°
2026-05-06 19:15 43.89847 -69.95050 34852 ft 542 kts 45°
2026-05-06 19:16 43.95010 -69.87425 34853 ft 543 kts 45°
2026-05-06 19:16 44.00155 -69.79806 34851 ft 543 kts 46°
2026-05-06 19:17 44.05323 -69.72131 34841 ft 544 kts 46°
2026-05-06 19:17 44.10513 -69.64403 34847 ft 545 kts 46°
2026-05-06 19:18 44.15670 -69.56703 34849 ft 545 kts 46°
2026-05-06 19:18 44.20849 -69.48946 34842 ft 545 kts 46°
2026-05-06 19:19 44.25986 -69.41234 34841 ft 545 kts 46°
2026-05-06 19:19 44.31131 -69.33487 34844 ft 544 kts 46°
2026-05-06 19:20 44.36288 -69.25700 34845 ft 544 kts 46°
2026-05-06 19:20 44.41408 -69.17949 34851 ft 543 kts 46°
2026-05-06 19:21 44.46518 -69.10190 34851 ft 543 kts 46°
2026-05-06 19:21 44.51621 -69.02422 34853 ft 543 kts 46°
2026-05-06 19:22 44.56728 -68.94625 34846 ft 543 kts 46°
2026-05-06 19:22 44.61837 -68.86803 34842 ft 542 kts 46°
2026-05-06 19:23 44.66928 -68.78987 34840 ft 542 kts 46°
2026-05-06 19:23 44.72021 -68.71146 34833 ft 542 kts 46°
2026-05-06 19:24 44.77086 -68.63327 34837 ft 542 kts 46°
2026-05-06 19:24 44.82123 -68.55529 34844 ft 541 kts 46°
2026-05-06 19:25 44.87212 -68.47627 34856 ft 541 kts 46°
2026-05-06 19:25 44.92257 -68.39772 34862 ft 542 kts 47°
2026-05-06 19:26 44.97309 -68.31882 34866 ft 542 kts 47°
2026-05-06 19:26 45.02349 -68.23991 34867 ft 542 kts 47°
2026-05-06 19:27 45.07386 -68.16081 34864 ft 542 kts 47°
2026-05-06 19:27 45.12420 -68.08153 34864 ft 543 kts 47°
2026-05-06 19:28 45.17482 -68.00157 34865 ft 543 kts 47°
2026-05-06 19:28 45.22511 -67.92191 34864 ft 543 kts 47°
2026-05-06 19:29 45.27535 -67.84208 34860 ft 543 kts 47°
2026-05-06 19:29 45.32565 -67.76197 34847 ft 543 kts 47°
2026-05-06 19:30 45.37303 -67.67927 34865 ft 537 kts 53°
2026-05-06 19:30 45.41678 -67.59289 34870 ft 541 kts 54°
2026-05-06 19:31 45.46051 -67.50553 34868 ft 544 kts 54°
2026-05-06 19:31 45.52749 -67.37420 34847 ft 548 kts 53°
2026-05-06 19:32 45.63659 -67.16077 34864 ft 549 kts 53°
2026-05-06 19:32 45.81506 -66.80682 34862 ft 549 kts 54°
2026-05-06 19:33 45.99334 -66.44884 34892 ft 549 kts 54°
2026-05-06 19:33 46.16887 -66.09191 34884 ft 547 kts 54°
2026-05-06 19:34 46.34397 -65.73132 34879 ft 544 kts 54°
2026-05-06 19:34 46.51593 -65.37254 34870 ft 542 kts 54°
2026-05-06 19:35 46.68616 -65.01282 34867 ft 540 kts 54°
2026-05-06 19:35 46.85579 -64.64964 34878 ft 539 kts 54°
2026-05-06 19:36 47.02263 -64.28779 34885 ft 538 kts 55°
2026-05-06 19:36 47.18833 -63.92361 34895 ft 537 kts 55°
2026-05-06 19:37 47.37446 -63.50872 34899 ft 537 kts 55°
2026-05-06 19:37 47.64568 -62.89273 34922 ft 538 kts 55°
2026-05-06 19:38 48.02113 -62.01654 34944 ft 539 kts 56°
2026-05-06 19:38 48.33937 -61.25068 34957 ft 539 kts 56°
2026-05-06 19:39 48.65057 -60.48044 34977 ft 538 kts 56°
2026-05-06 19:39 48.95528 -59.70389 34988 ft 536 kts 57°
2026-05-06 19:40 49.25394 -58.91961 35007 ft 532 kts 58°
2026-05-06 19:40 49.39997 -58.52754 34926 ft 521 kts 58°
2026-05-06 19:40 49.54241 -58.13938 34976 ft 515 kts 58°
2026-05-06 19:41 49.81744 -57.37314 34975 ft 513 kts 59°
2026-05-06 19:41 50.08852 -56.59454 35017 ft 509 kts 60°
2026-05-06 19:42 50.35444 -55.80680 34987 ft 510 kts 60°
2026-05-06 19:42 50.61296 -55.01684 35005 ft 509 kts 61°
2026-05-06 19:43 50.86620 -54.21778 35002 ft 508 kts 62°
2026-05-06 19:43 51.11477 -53.40700 35004 ft 512 kts 63°
2026-05-06 19:44 51.21608 -53.05809 35020 ft 518 kts 66°
2026-05-06 19:44 51.29964 -52.74750 35065 ft 535 kts 65°
2026-05-06 19:45 51.37382 -52.47271 35008 ft 530 kts 65°
2026-05-06 19:45 51.40836 -52.34277 35027 ft 509 kts 66°
2026-05-06 19:45 51.43975 -52.22427 35063 ft 518 kts 66°
2026-05-06 19:46 51.50714 -51.96858 35138 ft 530 kts 66°
2026-05-06 19:46 51.63352 -51.48000 34986 ft 519 kts 66°
2026-05-06 19:47 51.84699 -50.63011 35051 ft 510 kts 66°
2026-05-06 19:47 52.02433 -49.83601 35065 ft 518 kts 77°
2026-05-06 19:48 52.06395 -49.51685 35062 ft 518 kts 74°
2026-05-06 19:48 52.11666 -49.18942 35144 ft 529 kts 75°
2026-05-06 19:48 52.13525 -49.05373 35093 ft 529 kts 77°
2026-05-06 19:49 52.14738 -48.95637 35045 ft 516 kts 77°
2026-05-06 19:49 52.17453 -48.74322 35014 ft 508 kts 76°
2026-05-06 19:49 52.19377 -48.60101 35088 ft 518 kts 76°
2026-05-06 19:50 52.24099 -48.24265 35167 ft 531 kts 76°
2026-05-06 19:50 52.25077 -48.16610 35060 ft 522 kts 76°
2026-05-06 19:50 52.26082 -48.08679 35104 ft 513 kts 76°
2026-05-06 19:51 52.29850 -47.78778 35160 ft 513 kts 76°
2026-05-06 19:51 52.34978 -47.37140 35136 ft 525 kts 76°
2026-05-06 19:51 52.40515 -46.90444 35119 ft 525 kts 76°
2026-05-06 19:52 52.51016 -45.97035 35017 ft 509 kts 76°
2026-05-06 19:52 52.60489 -45.06218 35186 ft 509 kts 76°
2026-05-06 19:53 52.68322 -44.25116 35162 ft 519 kts 76°
2026-05-06 19:53 52.76613 -43.31749 35122 ft 502 kts 75°
2026-05-06 19:54 52.80328 -42.86926 35127 ft 490 kts 75°
2026-05-06 19:54 52.83857 -42.42402 35171 ft 487 kts 75°
2026-05-06 19:54 52.90444 -41.52326 35246 ft 501 kts 75°
2026-05-06 19:55 52.96468 -40.60029 35162 ft 506 kts 74°
2026-05-06 19:55 53.01034 -39.89913 35110 ft 483 kts 68°
2026-05-06 19:56 53.05887 -39.59796 35269 ft 502 kts 67°
2026-05-06 19:56 53.14059 -38.99826 35191 ft 508 kts 70°
2026-05-06 19:57 53.25941 -38.09484 35091 ft 488 kts 72°
2026-05-06 19:57 53.36840 -37.21150 35137 ft 482 kts 73°
2026-05-06 19:58 53.46952 -36.33506 35105 ft 480 kts 75°
2026-05-06 19:58 53.56414 -35.45524 35089 ft 479 kts 76°
2026-05-06 19:59 53.65197 -34.57482 35081 ft 478 kts 78°
2026-05-06 19:59 53.71225 -33.92624 35047 ft 476 kts 79°
2026-05-06 20:00 53.77906 -33.15723 35101 ft 480 kts 80°
2026-05-06 20:00 53.85018 -32.26536 35048 ft 478 kts 81°
2026-05-06 20:01 53.90321 -31.53537 35029 ft 478 kts 82°
2026-05-06 20:01 53.92866 -31.16108 35550 ft 483 kts 82°
2026-05-06 20:01 53.93246 -31.10368 35613 ft 487 kts 82°
2026-05-06 20:02 53.93982 -30.99074 35677 ft 485 kts 82°
2026-05-06 20:02 53.94714 -30.87693 35701 ft 485 kts 82°
2026-05-06 20:03 53.95076 -30.81996 36138 ft 477 kts 82°
2026-05-06 20:03 53.95425 -30.76422 36780 ft 468 kts 82°
2026-05-06 20:03 53.95762 -30.71000 37045 ft 467 kts 82°
2026-05-06 20:03 53.96109 -30.65445 37028 ft 473 kts 82°
2026-05-06 20:04 53.96916 -30.52463 37041 ft 482 kts 82°
2026-05-06 20:04 53.98514 -30.25916 37132 ft 496 kts 82°
2026-05-06 20:04 53.98958 -30.18258 37039 ft 501 kts 83°
2026-05-06 20:05 54.01964 -29.50378 37076 ft 506 kts 85°
2026-05-06 20:05 54.05167 -28.54936 37006 ft 503 kts 86°
2026-05-06 20:06 54.06461 -28.07742 36952 ft 492 kts 86°
2026-05-06 20:06 54.07546 -27.61969 36992 ft 487 kts 87°
2026-05-06 20:06 54.09220 -26.68098 37118 ft 502 kts 89°
2026-05-06 20:07 54.10173 -25.72549 36995 ft 503 kts 90°
2026-05-06 20:07 54.10370 -24.78929 36954 ft 488 kts 91°
2026-05-06 20:08 54.09846 -23.85524 37090 ft 501 kts 91°
2026-05-06 20:08 54.08556 -22.89471 36977 ft 504 kts 93°
2026-05-06 20:09 54.06551 -21.95731 36903 ft 487 kts 94°
2026-05-06 20:09 54.03865 -21.03550 37052 ft 497 kts 95°
2026-05-06 20:10 54.00361 -20.08693 36931 ft 502 kts 96°
2026-05-06 20:10 53.99693 -19.98724 36931 ft 491 kts 103°
2026-05-06 20:10 53.95198 -19.74357 37067 ft 486 kts 111°
2026-05-06 20:11 53.91828 -19.56361 37019 ft 496 kts 108°
2026-05-06 20:11 53.83250 -19.06088 36934 ft 499 kts 110°
2026-05-06 20:12 53.66584 -18.18115 36874 ft 485 kts 110°
2026-05-06 20:12 53.49677 -17.32487 36999 ft 485 kts 111°
2026-05-06 20:13 53.31813 -16.45797 36984 ft 496 kts 111°
2026-05-06 20:13 53.13350 -15.59947 36867 ft 480 kts 111°
2026-05-06 20:14 52.99740 -14.92917 36874 ft 475 kts 90°
2026-05-06 20:14 53.00347 -14.77197 36969 ft 471 kts 88°
2026-05-06 20:15 53.00210 -14.61961 37074 ft 480 kts 91°
2026-05-06 20:15 53.00097 -14.53821 37037 ft 486 kts 91°
2026-05-06 20:15 53.00063 -14.37954 36947 ft 493 kts 90°
2026-05-06 20:16 52.98032 -13.63464 36880 ft 485 kts 96°
2026-05-06 20:16 52.92568 -12.76314 36997 ft 475 kts 95°
2026-05-06 20:17 52.86410 -11.87604 37050 ft 490 kts 96°
2026-05-06 20:17 52.79579 -10.98868 36913 ft 480 kts 96°
2026-05-06 20:18 52.72283 -10.12584 37017 ft 472 kts 97°
2026-05-06 20:18 52.64303 -9.26010 37058 ft 487 kts 97°
2026-05-06 20:19 52.55577 -8.38663 36913 ft 476 kts 98°
2026-05-06 20:19 52.46474 -7.53976 37021 ft 471 kts 98°
2026-05-06 20:20 52.36634 -6.68547 37053 ft 487 kts 99°
2026-05-06 20:20 52.25984 -5.81979 36947 ft 480 kts 100°
2026-05-06 20:21 52.15915 -4.98416 37048 ft 478 kts 100°
2026-05-06 20:21 52.04953 -4.12011 37075 ft 496 kts 101°
2026-05-06 20:22 51.93240 -3.25008 36952 ft 488 kts 102°
2026-05-06 20:22 51.84801 -2.65364 37010 ft 484 kts 103°
2026-05-06 20:23 51.83259 -2.54737 37003 ft 491 kts 103°
2026-05-06 20:23 51.81672 -2.43856 37011 ft 496 kts 103°
2026-05-06 20:24 51.80083 -2.33028 37029 ft 498 kts 103°
2026-05-06 20:24 51.78474 -2.22143 37027 ft 498 kts 103°
2026-05-06 20:25 51.76860 -2.11305 37020 ft 497 kts 103°
2026-05-06 20:25 51.75243 -2.00509 37024 ft 494 kts 103°
2026-05-06 20:26 51.73614 -1.89710 37021 ft 492 kts 104°
2026-05-06 20:26 51.71994 -1.79038 37002 ft 491 kts 104°
2026-05-06 20:27 51.70368 -1.68388 37006 ft 490 kts 104°
2026-05-06 20:27 51.68821 -1.57676 37026 ft 490 kts 103°
2026-05-06 20:28 51.67361 -1.47006 37018 ft 490 kts 102°
2026-05-06 20:28 51.65884 -1.36283 37023 ft 491 kts 103°
2026-05-06 20:29 51.64379 -1.25577 37023 ft 492 kts 103°
2026-05-06 20:29 51.62845 -1.14823 37022 ft 492 kts 103°
2026-05-06 20:30 51.60526 -0.98715 37023 ft 493 kts 103°
2026-05-06 20:31 51.59231 -0.89785 37025 ft 493 kts 103°
2026-05-06 20:31 51.57401 -0.77244 37018 ft 494 kts 103°
2026-05-06 20:32 51.55821 -0.66499 37025 ft 494 kts 103°
2026-05-06 20:32 51.54498 -0.57557 37019 ft 493 kts 104°
2026-05-06 20:33 51.52907 -0.46872 37019 ft 493 kts 104°
2026-05-06 20:33 51.51300 -0.36154 37021 ft 493 kts 104°
2026-05-06 20:34 51.49690 -0.25494 37021 ft 492 kts 104°
2026-05-06 20:34 51.48063 -0.14786 37019 ft 492 kts 104°
2026-05-06 20:35 51.46440 -0.04178 37023 ft 492 kts 104°
2026-05-06 20:35 51.44805 0.06440 37021 ft 491 kts 104°
2026-05-06 20:36 51.43157 0.17069 37022 ft 491 kts 104°
2026-05-06 20:36 51.41497 0.27709 37019 ft 491 kts 104°
2026-05-06 20:37 51.39827 0.38343 36987 ft 491 kts 104°
2026-05-06 20:37 51.38154 0.48928 36981 ft 491 kts 104°
2026-05-06 20:38 51.36471 0.59507 36984 ft 492 kts 105°
2026-05-06 20:38 51.34779 0.70081 37014 ft 492 kts 105°
2026-05-06 20:39 51.33067 0.80705 37007 ft 492 kts 105°
2026-05-06 20:39 51.31355 0.91266 37005 ft 492 kts 105°
2026-05-06 20:40 51.29626 1.01863 37000 ft 492 kts 105°
2026-05-06 20:40 51.27890 1.12435 36999 ft 492 kts 105°
2026-05-06 20:41 51.26148 1.22980 36999 ft 492 kts 105°
2026-05-06 20:41 51.24386 1.33582 36997 ft 492 kts 105°
2026-05-06 20:42 51.22628 1.44092 36996 ft 492 kts 105°
2026-05-06 20:42 51.20858 1.54615 36996 ft 492 kts 105°
2026-05-06 20:43 51.19063 1.65215 36993 ft 492 kts 105°
2026-05-06 20:43 51.16772 1.78660 36991 ft 492 kts 105°
2026-05-06 20:44 51.10485 2.53106 36965 ft 486 kts 95°
2026-05-06 20:44 51.05621 2.84915 37092 ft 484 kts 109°
2026-05-06 20:44 51.03964 2.93466 37033 ft 487 kts 105°
2026-05-06 20:44 51.00400 3.15552 37069 ft 498 kts 106°
2026-05-06 20:45 50.99167 3.22303 36957 ft 494 kts 107°
2026-05-06 20:45 50.94895 3.44511 36857 ft 475 kts 107°
2026-05-06 20:45 50.92319 3.58336 36993 ft 483 kts 107°
2026-05-06 20:46 50.85387 3.98480 36998 ft 501 kts 105°
2026-05-06 20:46 50.71419 4.78253 36875 ft 494 kts 107°
2026-05-06 20:46 50.63916 5.19669 36845 ft 483 kts 107°
2026-05-06 20:47 50.56465 5.59828 36902 ft 478 kts 108°
2026-05-06 20:47 50.43117 6.29737 36967 ft 491 kts 108°
2026-05-06 20:48 50.37216 6.97193 36901 ft 495 kts 99°
2026-05-06 20:48 50.30204 7.77677 36799 ft 485 kts 100°
2026-05-06 20:49 50.27082 8.05643 36833 ft 483 kts 105°
2026-05-06 20:49 50.23149 8.32851 36966 ft 498 kts 104°
2026-05-06 20:49 50.21993 8.41181 36964 ft 497 kts 104°
2026-05-06 20:50 50.19060 8.62169 36811 ft 472 kts 105°
2026-05-06 20:50 50.16525 8.79633 36964 ft 484 kts 105°
2026-05-06 20:50 50.15526 8.86458 36914 ft 491 kts 105°
2026-05-06 20:51 50.08748 9.32396 36872 ft 494 kts 106°
2026-05-06 20:51 49.96111 10.14354 36723 ft 480 kts 107°
2026-05-06 20:52 49.79840 10.85959 36855 ft 487 kts 116°
2026-05-06 20:52 49.64187 11.45855 36925 ft 496 kts 113°
2026-05-06 20:53 49.60528 11.64014 36912 ft 480 kts 111°
2026-05-06 20:53 49.58419 11.74424 36825 ft 491 kts 112°
2026-05-06 20:54 49.52106 12.04275 36846 ft 498 kts 112°
2026-05-06 20:54 49.39365 12.63328 36843 ft 498 kts 113°